Flag for Australia Weather past 2 weeks in Brisbane, Queensland, Australia

Now
68 °F

Passing clouds.


Feels Like: 68 °F
Forecast: 59 / 84 °F
Wind: 10 mph from North

Location: Brisbane Airport M. O

Current Time: Oct 24, 2014 at 11:12:06 PM

Latest Report: Oct 24, 2014 at 10:30 PM


Visibility: N/A

Pressure: 30.15 "Hg

Humidity: 69%

Dew point: 57 °F

Location of BrisbaneLocation

Historic Weather in Brisbane — Graph

°F

Brisbane temperature yesterday

Maximum temperature yesterday: 75 °F (at 11:00 AM)
Minimum temperature yesterday: 55 °F (at 5:00 AM)
Average temperature yesterday: 68 °F

Past Weeks' High & Low Weather Summary

 TemperatureHumidityPressure
High82 °F (Oct 14, 12:30 PM)94% (Oct 14, 4:00 AM)30.33 "Hg (Oct 14, 4:00 AM)
Low54 °F (Oct 15, 4:30 AM)14% (Oct 14, 5:00 PM)29.74 "Hg (Oct 14, 2:00 PM)
Average69 °F61%30.11 "Hg
* Reported Oct 9 9:00 PM — Oct 24 9:30 PM, Brisbane, Weather by CustomWeather, © 2014

Note: Actual official high and low records may vary slightly from our data, if they occured in-between our weather recording intervals... More about our weather records

Advertising

Brisbane weather history for previous 24 hours

 ConditionsComfort  
Time TempWeatherWind HumidityBarometerVisibility
9:30 PM
Oct 24
70 °FPassing clouds.14 mph64%30.18 "HgN/A
9:00 PM70 °FPassing clouds.16 mph64%30.18 "HgN/A
8:30 PM70 °FPassing clouds.16 mph64%30.18 "HgN/A
8:00 PM70 °FPassing clouds.16 mph64%30.15 "HgN/A
7:30 PM70 °FPassing clouds.16 mph64%30.15 "HgN/A
7:00 PM70 °FPassing clouds.16 mph64%30.15 "HgN/A
6:30 PM70 °FPassing clouds.15 mph64%30.15 "HgN/A
6:00 PM70 °FPassing clouds.18 mph64%30.12 "HgN/A
5:30 PM72 °FScattered clouds.17 mph61%30.12 "HgN/A
5:00 PM72 °FSunny.20 mph61%30.09 "Hg10 mi
4:00 PM73 °FPassing clouds.17 mph57%30.09 "HgN/A
3:30 PM75 °FPassing clouds.17 mph57%30.09 "HgN/A
3:00 PM75 °FPassing clouds.17 mph57%30.09 "HgN/A
2:00 PM75 °FPassing clouds.16 mph57%30.12 "HgN/A
1:00 PM75 °FPassing clouds.17 mph57%30.12 "HgN/A
12:00 PM77 °FPassing clouds.13 mph51%30.15 "HgN/A
11:30 AM77 °FPassing clouds.13 mph47%30.15 "HgN/A
11:00 AM77 °FPassing clouds.13 mph47%30.15 "HgN/A
10:30 AM77 °FPassing clouds.12 mph47%30.18 "HgN/A
10:00 AM75 °FPassing clouds.13 mph50%30.18 "HgN/A
9:30 AM73 °FPassing clouds.10 mph57%30.18 "HgN/A
9:00 AM73 °FPassing clouds.9 mph53%30.18 "HgN/A
8:00 AM72 °FPassing clouds.8 mph57%30.18 "HgN/A
7:30 AM70 °FPassing clouds.5 mph60%30.18 "HgN/A
7:00 AM70 °FPassing clouds.5 mph60%30.18 "HgN/A
6:30 AM68 °FPartly sunny.3 mph64%30.18 "HgN/A
6:00 AM66 °FScattered clouds.No wind73%30.18 "HgN/A
5:30 AM64 °FPartly sunny.1 mph78%30.15 "HgN/A
5:00 AM64 °FPassing clouds.1 mph78%30.15 "HgN/A
4:30 AM64 °FPassing clouds.6 mph73%30.15 "HgN/A
4:00 AM64 °FPassing clouds.No wind78%30.12 "HgN/A
3:30 AM63 °FPassing clouds.2 mph77%30.12 "HgN/A
3:00 AM64 °FPassing clouds.5 mph78%30.12 "HgN/A
2:30 AM64 °FPassing clouds.7 mph73%30.12 "HgN/A
2:00 AM64 °FPassing clouds.6 mph73%30.12 "HgN/A
1:30 AM64 °FPassing clouds.7 mph78%30.12 "HgN/A
1:00 AM66 °FPassing clouds.7 mph73%30.12 "HgN/A
12:30 AM66 °FPassing clouds.10 mph78%30.15 "HgN/A
12:00 AM68 °FClear.10 mph69%30.15 "Hg10 mi
11:30 PM
Oct 23
68 °FClear.13 mph64%30.15 "Hg10 mi
11:00 PM68 °FClear.12 mph64%30.15 "Hg10 mi
Weather by CustomWeather, © 2014

See weather overviewHow to use our weather pages